KK7HEZ Weather Reports


time (UTC)temp
C
wind
direction
speed
KPH
gust
KPH
rain 1hr
cm
rain 24hr
cm
rain mn
cm
humidity
%
barometer
mb
20260503224715 21 194 3.2 3.2 0.00 0.00 0.00 56 1012.3
20260503224213 21 208 4.8 4.8 0.00 0.00 0.00 58 1012.4
20260503223710 21 228 4.8 4.8 0.00 0.00 0.00 56 1012.5
20260503223208 22 163 1.6 3.2 0.00 0.00 0.00 55 1012.5
20260503222704 21 149 0.0 1.6 0.00 0.00 0.00 57 1012.8
20260503222202 21 227 4.8 4.8 0.00 0.00 0.00 57 1012.8
20260503221700 21 172 3.2 3.2 0.00 0.00 0.00 56 1012.7
20260503221157 21 211 4.8 4.8 0.00 0.00 0.00 58 1013.0
20260503220654 21 211 3.2 4.8 0.00 0.00 0.00 56 1012.9
20260503220150 21 198 3.2 3.2 0.00 0.00 0.00 57 1013.2
20260503215647 21 169 3.2 3.2 0.00 0.00 0.00 58 1013.1
20260503215143 21 122 0.0 0.0 0.00 0.00 0.00 59 1013.0
20260503214642 21 178 3.2 3.2 0.00 0.00 0.00 57 1013.4
20260503214138 21 169 1.6 3.2 0.00 0.00 0.00 58 1013.1
20260503213632 21 191 3.2 3.2 0.00 0.00 0.00 58 1013.3
20260503213128 21 197 3.2 3.2 0.00 0.00 0.00 58 1013.2
20260503212626 21 176 3.2 3.2 0.00 0.00 0.00 59 1013.3
20260503212123 21 142 1.6 1.6 0.00 0.00 0.00 59 1013.2
20260503211621 21 199 3.2 3.2 0.00 0.00 0.00 59 1013.4
20260503211115 20 222 3.2 4.8 0.00 0.00 0.00 61 1013.4
20260503210607 20 170 3.2 3.2 0.00 0.00 0.00 63 1013.4
20260503210103 20 136 1.6 3.2 0.00 0.00 0.00 61 1013.4
20260503205559 20 199 4.8 4.8 0.00 0.00 0.00 63 1013.6
20260503205055 20 228 4.8 4.8 0.00 0.00 0.00 64 1013.5
20260503204553 20 221 4.8 4.8 0.00 0.00 0.00 67 1013.7
20260503204050 20 235 4.8 4.8 0.00 0.00 0.00 64 1013.7
20260503203547 20 181 3.2 3.2 0.00 0.00 0.00 66 1013.7
20260503203044 20 203 3.2 4.8 0.00 0.00 0.00 66 1013.9
20260503202542 19 201 3.2 3.2 0.00 0.00 0.00 69 1013.9
20260503202039 20 221 4.8 4.8 0.00 0.00 0.00 68 1014.0
20260503201538 19 172 1.6 3.2 0.00 0.00 0.00 70 1014.0
20260503201035 19 183 3.2 3.2 0.00 0.00 0.00 70 1013.9
20260503200531 18 200 1.6 3.2 0.00 0.00 0.00 71 1014.1
20260503200027 19 211 3.2 3.2 0.00 0.00 0.00 69 1014.3
20260503195525 19 221 4.8 4.8 0.00 0.00 0.00 70 1014.4
20260503195021 19 170 3.2 3.2 0.00 0.00 0.00 71 1014.2
20260503194519 19 197 3.2 3.2 0.00 0.00 0.00 70 1014.3
20260503194018 18 216 3.2 3.2 0.00 0.00 0.00 71 1014.5
20260503193515 18 223 3.2 3.2 0.00 0.00 0.00 70 1014.6
20260503193010 17 218 4.8 4.8 0.00 0.00 0.00 73 1014.6
20260503192507 17 225 4.8 4.8 0.00 0.00 0.00 72 1014.6
20260503192003 18 220 4.8 4.8 0.00 0.00 0.00 71 1014.6
20260503191500 18 210 3.2 3.2 0.00 0.00 0.00 70 1014.7
20260503190956 18 167 1.6 1.6 0.00 0.00 0.00 71 1014.7
20260503190454 18 193 3.2 3.2 0.00 0.00 0.00 72 1014.9
20260503185951 18 207 4.8 4.8 0.00 0.00 0.00 74 1014.8
20260503185447 18 182 3.2 4.8 0.00 0.00 0.00 75 1014.9
20260503184946 18 183 3.2 3.2 0.00 0.00 0.00 75 1014.8
20260503184443 17 174 1.6 3.2 0.00 0.00 0.00 75 1014.8
20260503183939 17 224 3.2 4.8 0.00 0.00 0.00 76 1014.9
20260503183436 17 138 0.0 0.0 0.00 0.00 0.00 77 1015.1
20260503182933 17 240 4.8 8.0 0.00 0.00 0.00 75 1014.8
20260503182432 17 133 0.0 0.0 0.00 0.00 0.00 74 1015.1
20260503181929 17 170 1.6 3.2 0.00 0.00 0.00 75 1014.9
20260503181426 17 177 1.6 1.6 0.00 0.00 0.00 76 1015.2
20260503180922 17 153 1.6 1.6 0.00 0.00 0.00 76 1015.1
20260503180421 16 192 3.2 3.2 0.00 0.00 0.00 79 1015.2
20260503175916 16 177 1.6 1.6 0.00 0.00 0.00 78 1015.3
20260503175414 17 178 1.6 1.6 0.00 0.00 0.00 77 1015.4
20260503174909 17 176 1.6 1.6 0.00 0.00 0.00 76 1015.1
20260503174408 16 172 1.6 3.2 0.00 0.00 0.00 77 1015.2
20260503173903 16 180 0.0 0.0 0.00 0.00 0.00 80 1015.2
20260503173400 16 194 3.2 3.2 0.00 0.00 0.00 79 1015.2
20260503172856 15 185 0.0 0.0 0.00 0.00 0.00 81 1015.6
20260503172354 15 182 0.0 0.0 0.00 0.00 0.00 82 1015.2
20260503171850 15 182 1.6 1.6 0.00 0.00 0.00 81 1015.5
20260503171347 15 192 0.0 0.0 0.00 0.00 0.00 83 1015.4
20260503170845 15 192 0.0 0.0 0.00 0.00 0.00 84 1015.5
20260503170341 15 192 0.0 0.0 0.00 0.00 0.00 83 1015.6
20260503150733 12 181 0.0 0.0 0.00 0.00 0.00 91 1015.7
20260503150229 12 181 0.0 0.0 0.00 0.00 0.00 91 1015.9
20260503140153 11 181 0.0 0.0 0.00 0.00 0.00 89 1015.7
20260503131123 11 181 0.0 0.0 0.00 0.00 0.00 89 1015.2
20260503130621 11 181 0.0 0.0 0.00 0.00 0.00 89 1015.6
20260503130118 11 181 0.0 0.0 0.00 0.00 0.00 89 1015.1
20260503110505 12 181 0.0 0.0 0.00 0.00 0.00 85 1015.5
20260503090349 14 174 0.0 0.0 0.00 0.00 0.00 71 1015.3
20260503081318 14 174 0.0 0.0 0.00 0.00 0.00 76 1015.5
20260503080814 14 174 0.0 0.0 0.00 0.00 0.00 74 1015.6
20260503080312 14 174 0.0 0.0 0.00 0.00 0.00 76 1015.5
20260503072748 14 175 0.0 0.0 0.00 0.00 0.00 75 1015.3
20260503072245 14 175 0.0 0.0 0.00 0.00 0.00 74 1015.3
20260503071741 14 175 0.0 0.0 0.00 0.00 0.00 74 1015.3
20260503071238 14 175 0.0 0.0 0.00 0.00 0.00 75 1015.2
20260503070734 14 175 0.0 0.0 0.00 0.00 0.00 74 1015.4
20260503070232 14 175 0.0 0.0 0.00 0.00 0.00 74 1015.2
20260503060151 15 175 0.0 0.0 0.00 0.00 0.00 74 1015.3
20260503054638 15 175 0.0 0.0 0.00 0.00 0.00 75 1015.6
20260503054136 15 175 0.0 0.0 0.00 0.00 0.00 76 1015.2
20260503053633 15 175 0.0 0.0 0.00 0.00 0.00 75 1015.3
20260503053132 15 175 0.0 0.0 0.00 0.00 0.00 75 1015.3
20260503052628 15 175 0.0 0.0 0.00 0.00 0.00 76 1015.2
20260503052124 15 175 0.0 0.0 0.00 0.00 0.00 75 1015.4
20260503051620 15 176 0.0 0.0 0.00 0.00 0.00 75 1015.2
20260503051118 15 176 0.0 0.0 0.00 0.00 0.00 77 1015.3
20260503050614 15 176 0.0 0.0 0.00 0.00 0.00 76 1015.2
20260503050111 15 176 0.0 0.0 0.00 0.00 0.00 76 1015.1
20260503045608 15 176 0.0 0.0 0.00 0.00 0.00 75 1015.2
20260503045105 15 176 0.0 0.0 0.00 0.00 0.00 76 1015.2
20260503044602 15 176 0.0 0.0 0.00 0.00 0.00 76 1015.1
20260503044100 15 176 0.0 0.0 0.00 0.00 0.00 76 1015.1
20260503043555 15 176 0.0 0.0 0.00 0.00 0.00 75 1015.1
20260503043052 15 176 0.0 0.0 0.00 0.00 0.00 77 1015.0
20260503042549 15 176 0.0 0.0 0.00 0.00 0.00 78 1014.9
20260503042045 15 176 0.0 0.0 0.00 0.00 0.00 77 1014.8
20260503041543 15 176 0.0 0.0 0.00 0.00 0.00 78 1015.2
20260503041040 15 176 0.0 0.0 0.00 0.00 0.00 77 1014.7
20260503040537 15 176 0.0 0.0 0.00 0.00 0.00 77 1014.7
20260503040034 15 176 0.0 0.0 0.00 0.00 0.00 77 1014.9
20260503035532 16 176 0.0 0.0 0.00 0.00 0.00 77 1014.5
20260503035029 16 176 0.0 0.0 0.00 0.00 0.00 76 1014.6
20260503034526 16 176 0.0 0.0 0.00 0.00 0.00 75 1014.6
20260503034023 16 176 0.0 0.0 0.00 0.00 0.00 75 1014.5
20260503033520 16 176 0.0 0.0 0.00 0.00 0.00 76 1014.7
20260503033018 16 176 0.0 0.0 0.00 0.00 0.00 77 1014.7
20260503032516 17 176 0.0 0.0 0.00 0.00 0.00 76 1014.5
20260503032014 17 176 0.0 0.0 0.00 0.00 0.00 73 1014.4
20260503031512 17 176 0.0 0.0 0.00 0.00 0.00 72 1014.2
20260503031008 18 176 0.0 0.0 0.00 0.00 0.00 72 1014.1
20260503030504 18 176 0.0 0.0 0.00 0.00 0.00 69 1014.2
20260503030002 18 176 0.0 0.0 0.00 0.00 0.00 66 1014.2
20260503025458 19 176 0.0 0.0 0.00 0.00 0.00 63 1014.0
20260503024956 19 176 0.0 0.0 0.00 0.00 0.00 63 1014.1
20260503024452 20 177 1.6 1.6 0.00 0.00 0.00 61 1014.4
20260503023949 20 161 0.0 0.0 0.00 0.00 0.00 62 1014.0
20260503023446 20 161 0.0 0.0 0.00 0.00 0.00 60 1014.3
20260503022942 19 140 0.0 0.0 0.00 0.00 0.00 61 1013.9
20260503022432 19 140 0.0 0.0 0.00 0.00 0.00 62 1014.1
20260503021928 19 140 0.0 0.0 0.00 0.00 0.00 62 1014.1
20260503021425 19 140 0.0 0.0 0.00 0.00 0.00 64 1014.2
20260503020922 19 140 0.0 0.0 0.00 0.00 0.00 64 1014.2
20260503020420 19 140 0.0 0.0 0.00 0.00 0.00 65 1014.0
20260503015916 19 140 0.0 0.0 0.00 0.00 0.00 64 1014.0
20260503015413 20 140 0.0 0.0 0.00 0.00 0.00 62 1014.3
20260503014908 20 187 3.2 4.8 0.00 0.00 0.00 61 1014.3
20260503014406 20 127 0.0 0.0 0.00 0.00 0.00 61 1014.2
20260503013904 20 161 1.6 3.2 0.00 0.00 0.00 61 1014.3
20260503013401 20 129 0.0 0.0 0.00 0.00 0.00 61 1014.3
20260503012858 21 199 3.2 3.2 0.00 0.00 0.00 58 1014.4
20260503012356 21 110 0.0 1.6 0.00 0.00 0.00 57 1014.3
20260503011852 21 110 0.0 0.0 0.00 0.00 0.00 59 1014.5
20260503011349 22 111 0.0 0.0 0.00 0.00 0.00 58 1014.3
20260503010845 21 111 0.0 0.0 0.00 0.00 0.00 62 1014.1
20260503010343 21 111 0.0 0.0 0.00 0.00 0.00 61 1014.3
20260503005839 21 110 0.0 0.0 0.00 0.00 0.00 65 1014.2
20260503005337 20 111 0.0 1.6 0.00 0.00 0.00 64 1014.3
20260503004833 19 110 1.6 1.6 0.00 0.00 0.00 66 1014.4
20260503004331 19 111 0.0 0.0 0.00 0.00 0.00 66 1014.4
20260503003828 19 110 1.6 1.6 0.00 0.00 0.00 66 1014.6
20260503003325 18 110 0.0 1.6 0.00 0.00 0.00 68 1014.5
20260503002822 18 111 1.6 1.6 0.00 0.00 0.00 68 1014.4
20260503002319 20 111 1.6 1.6 0.00 0.00 0.00 67 1014.4
20260503001815 20 182 3.2 4.8 0.00 0.00 0.00 65 1014.6
20260503001311 21 236 6.4 8.0 0.00 0.00 0.00 64 1014.7
20260503000809 20 157 0.0 1.6 0.00 0.00 0.00 63 1014.8
20260503000307 21 123 0.0 0.0 0.00 0.00 0.00 63 1014.5
20260502235803 21 225 4.8 4.8 0.00 0.00 0.00 62 1014.7
20260502235301 20 228 3.2 4.8 0.00 0.00 0.00 65 1014.9
20260502234757 20 203 3.2 3.2 0.00 0.00 0.00 67 1014.8
20260502234254 20 219 3.2 3.2 0.00 0.00 0.00 69 1015.1
20260502233750 21 212 3.2 3.2 0.00 0.00 0.00 67 1014.8
20260502233247 20 218 4.8 4.8 0.00 0.00 0.00 64 1015.2
20260502232743 20 196 3.2 3.2 0.00 0.00 0.00 67 1015.0
20260502232240 20 192 3.2 3.2 0.00 0.00 0.00 68 1015.3
20260502231737 20 206 3.2 3.2 0.00 0.00 0.00 69 1015.3
20260502231235 20 232 4.8 4.8 0.00 0.00 0.00 68 1015.3
20260502230733 19 225 4.8 4.8 0.00 0.00 0.00 68 1015.3
20260502230231 18 219 4.8 8.0 0.00 0.00 0.00 70 1015.3
20260502225727 20 214 3.2 3.2 0.00 0.00 0.00 71 1015.5
20260502225224 20 119 0.0 0.0 0.00 0.00 0.00 70 1015.5